Location: Passau
(48.5830°N, 13.4830°E)
Time: 09:28:31
(UTC+02:00)

A-11 Canister half - All Passes

Search period start: 24 July 2021 00:00
Search period end: 03 August 2021 00:00
Orbit: 1513 x 1687 km, 47.2° (Epoch: 23 July)

Date Brightness Start Highest point End Pass type
(mag) Time Alt. Az. Time Alt. Az. Time Alt. Az.
24 Jul - 00:23:55 10° W 00:34:06 77° SSW 00:44:13 10° ESE visible
24 Jul - 02:29:03 10° WNW 02:38:26 44° SW 02:47:42 10° SSE visible
24 Jul - 04:36:44 10° W 04:41:20 14° WSW 04:45:54 10° SSW visible
24 Jul - 17:52:57 10° SSE 17:58:33 17° SE 18:04:13 10° E daylight
24 Jul - 19:52:14 10° SW 20:01:35 48° SE 20:11:09 10° ENE daylight
24 Jul - 21:55:59 10° WSW 22:06:04 80° SSE 22:16:16 10° E visible
25 Jul - 00:00:58 10° W 00:11:08 79° SSW 00:21:17 10° ESE visible
25 Jul - 02:06:04 10° WNW 02:15:33 46° SW 02:24:56 10° SSE visible
25 Jul - 04:13:19 10° W 04:18:32 15° SW 04:23:42 10° SSW visible
25 Jul - 17:30:40 10° SSE 17:35:45 15° SE 17:40:54 10° E daylight
25 Jul - 19:29:28 10° SSW 19:38:42 46° SE 19:48:10 10° ENE daylight
25 Jul - 21:33:03 10° WSW 21:43:06 79° SSE 21:53:19 10° E visible
25 Jul - 23:38:00 10° W 23:48:11 80° SSW 23:58:21 10° ESE visible
26 Jul - 01:43:05 10° WNW 01:52:39 48° SW 02:02:08 10° SE visible
26 Jul - 03:50:01 10° W 03:55:44 17° SW 04:01:25 10° SSW visible
26 Jul - 17:08:29 10° SSE 17:12:58 14° ESE 17:17:29 10° E daylight
26 Jul - 19:06:42 10° SSW 19:15:49 44° SE 19:25:11 10° ENE daylight
26 Jul - 21:10:08 10° WSW 21:20:09 78° SSE 21:30:21 10° E visible
26 Jul - 23:15:03 10° W 23:25:13 81° S 23:35:25 10° ESE visible
27 Jul - 01:20:07 10° WNW 01:29:46 50° SSW 01:39:19 10° SE visible
27 Jul - 03:26:45 10° W 03:32:55 18° SW 03:39:03 10° SSW visible
27 Jul - 16:46:26 10° SE 16:50:11 13° ESE 16:53:57 10° E daylight
27 Jul - 18:43:56 10° SSW 18:52:56 42° SE 19:02:11 10° ENE daylight
27 Jul - 20:47:13 10° WSW 20:57:11 76° SSE 21:07:23 10° E daylight
27 Jul - 22:52:06 10° W 23:02:15 81° S 23:12:28 10° ESE visible
28 Jul - 00:57:08 10° WNW 01:06:51 52° SSW 01:16:30 10° SE visible
28 Jul - 03:03:32 10° W 03:10:06 20° SW 03:16:38 10° SSW visible
28 Jul - 16:24:38 10° SE 16:27:24 11° ESE 16:30:10 10° ESE daylight
28 Jul - 18:21:12 10° SSW 18:30:04 40° SE 18:39:11 10° ENE daylight
28 Jul - 20:24:19 10° WSW 20:34:15 75° SSE 20:44:25 10° E daylight
28 Jul - 22:29:09 10° W 22:39:17 82° S 22:49:31 10° ESE visible
29 Jul - 00:34:11 10° WNW 00:43:57 54° SSW 00:53:40 10° SE visible
29 Jul - 02:40:22 10° W 02:47:17 21° SW 02:54:10 10° S visible
29 Jul - 16:03:43 10° SE 16:04:38 10° ESE 16:05:31 10° ESE daylight
29 Jul - 17:58:29 10° SSW 18:07:12 38° SE 18:16:10 10° ENE daylight
29 Jul - 20:01:26 10° WSW 20:11:18 73° SSE 20:21:26 10° E daylight
29 Jul - 22:06:13 10° W 22:16:19 83° S 22:26:33 10° E visible
30 Jul - 00:11:14 10° WNW 00:21:02 56° SSW 00:30:50 10° SE visible
30 Jul - 02:17:14 10° W 02:24:27 23° SW 02:31:39 10° S visible
30 Jul - 17:35:47 10° SSW 17:44:20 36° SE 17:53:09 10° ENE daylight
30 Jul - 19:38:32 10° WSW 19:48:22 72° SSE 19:58:28 10° E daylight
30 Jul - 21:43:16 10° W 21:53:21 83° S 22:03:35 10° E visible
30 Jul - 23:48:16 10° WNW 23:58:07 58° SSW 00:07:58 10° SE visible
31 Jul - 01:54:07 10° W 02:01:37 24° SW 02:09:06 10° S visible
31 Jul - 17:13:06 10° SSW 17:21:29 34° SE 17:30:08 10° ENE daylight
31 Jul - 19:15:39 10° WSW 19:25:25 70° SSE 19:35:30 10° E daylight
31 Jul - 21:20:20 10° W 21:30:23 84° S 21:40:38 10° E visible
31 Jul - 23:25:19 10° WNW 23:35:11 60° SSW 23:45:06 10° SE visible
01 Aug - 01:31:02 10° W 01:38:48 26° SW 01:46:31 10° S visible
01 Aug - 16:50:26 10° SSW 16:58:39 33° SE 17:07:06 10° ENE daylight
01 Aug - 18:52:46 10° WSW 19:02:29 68° SSE 19:12:32 10° ENE daylight
01 Aug - 20:57:23 10° W 21:07:26 84° S 21:17:40 10° E visible
01 Aug - 23:02:21 10° WNW 23:12:16 62° SSW 23:22:13 10° SE visible
02 Aug - 01:07:58 10° W 01:15:57 27° SW 01:23:55 10° S visible
02 Aug - 16:27:47 10° SSW 16:35:48 31° SE 16:44:03 10° ENE daylight
02 Aug - 18:29:55 10° SW 18:39:34 66° SSE 18:49:33 10° ENE daylight
02 Aug - 20:34:27 10° W 20:44:27 84° S 20:54:41 10° E daylight
02 Aug - 22:39:25 10° WNW 22:49:20 64° SSW 22:59:20 10° SE visible
